CW5398 Weather Reports


Display with metric or nautical units.
time (UTC)temp
F
wind
direction
speed
MPH
gust
MPH
rain 1hr
in
rain 24hr
in
rain mn
in
humidity
%
barometer
mb
20260510112017 47 230 0.0 0.0 0.00 0.00 0.00 100 1016.5
20260510111037 47 230 0.0 0.0 0.00 0.00 0.00 100 1016.5
20260510110017 47 230 0.0 0.0 0.00 0.00 0.00 100 1016.5
20260510105017 47 225 0.0 2.0 0.00 0.00 0.00 100 1016.5
20260510104017 47 230 0.0 0.0 0.00 0.00 0.00 100 1016.4
20260510103017 47 230 0.0 0.0 0.00 0.00 0.00 100 1016.4
20260510102017 47 230 0.0 0.0 0.00 0.00 0.00 100 1016.3
20260510101017 47 230 0.0 0.0 0.00 0.00 0.00 100 1016.5
20260510100017 47 230 0.0 0.0 0.00 0.00 0.00 100 1016.5
20260510095017 48 225 1.0 3.0 0.00 0.00 0.00 100 1016.5
20260510094037 48 230 0.0 0.0 0.00 0.00 0.00 100 1016.5
20260510093016 48 230 0.0 0.0 0.00 0.00 0.00 100 1016.5
20260510092017 48 230 0.0 0.0 0.00 0.00 0.00 100 1016.5
20260510091017 48 230 0.0 0.0 0.00 0.00 0.00 100 1016.4
20260510090037 48 225 0.0 2.0 0.00 0.00 0.00 100 1016.4
20260510085017 48 230 0.0 0.0 0.00 0.00 0.00 100 1016.3
20260510084017 48 230 0.0 0.0 0.00 0.00 0.00 100 1016.3
20260510083016 48 230 0.0 0.0 0.00 0.00 0.00 100 1016.3
20260510082016 49 230 0.0 0.0 0.00 0.00 0.00 100 1016.1
20260510081016 49 231 0.0 0.0 0.00 0.00 0.00 100 1016.2
20260510080016 49 230 0.0 0.0 0.00 0.00 0.00 100 1016.2
20260510075017 49 230 0.0 0.0 0.00 0.00 0.00 100 1016.2
20260510074016 49 230 0.0 0.0 0.00 0.00 0.00 100 1016.1
20260510073016 49 230 0.0 0.0 0.00 0.00 0.00 100 1016.1
20260510072017 49 230 0.0 0.0 0.00 0.00 0.00 100 1016.0
20260510071017 50 230 0.0 0.0 0.00 0.00 0.00 100 1016.2
20260510070017 50 230 0.0 0.0 0.00 0.00 0.00 100 1016.2
20260510065016 50 230 0.0 0.0 0.00 0.00 0.00 88 1016.2
20260510064036 50 225 0.0 1.0 0.00 0.00 0.00 88 1016.3
20260510063016 50 230 0.0 0.0 0.00 0.00 0.00 88 1016.3
20260510062016 50 230 0.0 0.0 0.00 0.00 0.00 97 1016.0
20260510061016 51 230 0.0 0.0 0.00 0.00 0.00 86 1016.0
20260510060016 51 230 0.0 0.0 0.00 0.00 0.00 86 1016.0
20260510055016 51 230 0.0 0.0 0.00 0.00 0.00 84 1016.0
20260510054016 52 230 0.0 0.0 0.00 0.00 0.00 84 1016.0
20260510053036 52 230 0.0 0.0 0.00 0.00 0.00 83 1016.0
20260510052016 53 230 0.0 0.0 0.00 0.00 0.00 82 1016.2
20260510051016 53 230 0.0 0.0 0.00 0.00 0.00 81 1016.2
20260510050056 54 225 0.0 1.0 0.00 0.00 0.00 79 1016.2
20260510045016 54 225 0.0 4.0 0.00 0.00 0.00 79 1016.3
20260510044016 55 225 0.0 3.0 0.00 0.00 0.00 92 1016.1
20260510043016 55 225 0.0 0.0 0.00 0.00 0.00 92 1016.1
20260510042036 56 225 0.0 0.0 0.00 0.00 0.00 90 1016.0
20260510041016 56 225 0.0 0.0 0.00 0.00 0.00 86 1015.9
20260510040016 57 225 0.0 0.0 0.00 0.00 0.00 84 1015.9
20260510035016 58 225 0.0 0.0 0.00 0.00 0.00 84 1015.8
20260510034016 59 225 0.0 0.0 0.00 0.00 0.00 82 1015.8
20260510033015 59 225 0.0 0.0 0.00 0.00 0.00 80 1015.8
20260510032016 60 225 0.0 3.0 0.00 0.00 0.00 79 1015.9
20260510031016 60 225 0.0 0.0 0.00 0.00 0.00 78 1015.9
20260510030016 61 225 0.0 0.0 0.00 0.00 0.00 79 1015.9
20260510025016 61 225 0.0 0.0 0.00 0.00 0.00 77 1016.0
20260510024016 62 225 0.0 0.0 0.00 0.00 0.00 76 1016.0
20260510023015 62 225 0.0 0.0 0.00 0.00 0.00 74 1016.0
20260510022116 62 225 0.0 0.0 0.00 0.00 0.00 73 1016.0
20260510021015 63 225 0.0 0.0 0.00 0.00 0.00 73 1016.2
20260510020015 63 225 0.0 0.0 0.00 0.00 0.00 72 1016.2
20260510015015 63 225 0.0 0.0 0.00 0.00 0.00 68 1016.4
20260510014015 63 225 0.0 0.0 0.00 0.00 0.00 67 1016.7
20260510013016 63 225 0.0 1.0 0.00 0.00 0.00 66 1016.7
20260510012016 62 225 1.0 3.0 0.00 0.00 0.00 69 1016.9
20260510011015 62 225 0.0 0.0 0.00 0.00 0.00 67 1017.2
20260510010015 62 225 0.0 2.0 0.00 0.00 0.00 69 1017.2
20260510005016 62 225 0.0 4.0 0.00 0.00 0.00 72 1017.5
20260510004016 62 225 1.0 3.0 0.00 0.00 0.00 70 1017.6
20260510003015 62 225 0.0 1.0 0.00 0.00 0.00 70 1017.6
20260510002015 62 225 0.0 2.0 0.00 0.00 0.00 70 1017.7
20260510001015 62 225 1.0 4.0 0.00 0.00 0.00 70 1017.8
20260510000015 62 225 1.0 4.0 0.00 0.00 0.00 69 1017.8
20260509235015 62 203 1.0 5.0 0.00 0.00 0.00 70 1018.0
20260509234015 62 203 1.0 6.0 0.00 0.00 0.00 72 1018.1
20260509233057 62 203 2.0 5.0 0.00 0.00 0.00 73 1018.1
20260509232017 63 203 0.0 1.0 0.00 0.00 0.00 73 1018.2
20260509231017 63 203 1.0 4.0 0.00 0.00 0.00 74 1018.7
20260509230017 64 203 1.0 5.0 0.00 0.00 0.00 73 1018.7
20260509225037 64 203 0.0 1.0 0.00 0.00 0.00 70 1018.8
20260509224037 63 203 1.0 3.0 0.00 0.00 0.00 71 1019.1
20260509223037 64 203 2.0 5.0 0.00 0.00 0.00 73 1019.1
20260509222017 64 203 1.0 5.0 0.00 0.00 0.00 75 1019.3
20260509221017 64 203 2.0 7.0 0.00 0.00 0.00 76 1019.6
20260509220017 64 203 1.0 4.0 0.00 0.00 0.00 75 1019.6
20260509215017 63 203 2.0 8.0 0.00 0.00 0.00 76 1019.7
20260509214017 63 203 2.0 7.0 0.00 0.00 0.00 76 1019.6
20260509213017 64 203 3.0 7.0 0.00 0.00 0.00 75 1019.7
20260509212037 64 203 1.0 6.0 0.00 0.00 0.00 75 1019.8
20260509211017 63 203 0.0 4.0 0.00 0.00 0.00 76 1020.2
20260509210017 61 225 2.0 7.0 0.00 0.00 0.00 78 1020.2
20260509205017 62 225 2.0 5.0 0.00 0.00 0.00 77 1020.3
20260509204017 61 225 4.0 10.0 0.00 0.00 0.00 76 1020.2
20260509203017 62 225 1.0 6.0 0.00 0.00 0.00 81 1020.2
20260509202017 61 203 3.0 7.0 0.00 0.00 0.00 78 1020.1
20260509201017 61 203 1.0 6.0 0.00 0.00 0.00 78 1020.1
20260509200017 62 225 3.0 8.0 0.00 0.00 0.00 77 1020.1
20260509195017 62 248 1.0 6.0 0.00 0.00 0.00 77 1020.4
20260509194017 62 248 1.0 4.0 0.00 0.00 0.00 75 1020.6
20260509193017 62 248 1.0 7.0 0.00 0.00 0.00 77 1020.6
20260509192017 61 225 1.0 5.0 0.00 0.00 0.00 77 1020.7
20260509191037 61 225 1.0 7.0 0.00 0.00 0.00 78 1020.8
20260509190017 61 225 1.0 5.0 0.00 0.00 0.00 78 1020.7
20260509185017 60 225 1.0 7.0 0.00 0.00 0.00 78 1020.7
20260509184016 60 225 1.0 5.0 0.00 0.00 0.00 78 1020.7
20260509183017 61 248 3.0 7.0 0.00 0.00 0.00 77 1020.7
20260509182016 61 248 2.0 6.0 0.00 0.00 0.00 78 1020.8
20260509181037 62 270 2.0 6.0 0.00 0.00 0.00 75 1021.0
20260509180037 61 270 1.0 4.0 0.00 0.00 0.00 77 1020.9
20260509175017 60 270 1.0 5.0 0.00 0.00 0.00 80 1021.0
20260509174037 59 293 1.0 7.0 0.00 0.00 0.00 80 1021.1
20260509173016 59 293 0.0 6.0 0.00 0.00 0.00 81 1021.1
20260509172017 58 293 1.0 4.0 0.00 0.00 0.00 81 1021.0
20260509171016 57 293 0.0 3.0 0.00 0.00 0.00 83 1021.3
20260509170016 56 293 0.0 4.0 0.00 0.00 0.00 84 1021.3
20260509165016 55 293 1.0 5.0 0.00 0.00 0.00 85 1021.3
20260509164016 55 293 0.0 3.0 0.00 0.00 0.00 87 1021.4
20260509163016 55 293 0.0 4.0 0.00 0.00 0.00 87 1021.4
20260509162016 55 293 1.0 4.0 0.00 0.00 0.00 89 1021.5
20260509161036 54 284 0.0 0.0 0.00 0.00 0.00 91 1021.5
20260509160016 53 284 0.0 0.0 0.00 0.00 0.00 94 1021.5
20260509155036 53 293 0.0 3.0 0.00 0.00 0.00 96 1021.8
20260509154017 52 284 0.0 0.0 0.00 0.00 0.00 98 1021.8
20260509153016 51 284 0.0 0.0 0.00 0.00 0.00 100 1021.8
20260509152016 51 284 0.0 0.0 0.00 0.00 0.00 100 1021.8
20260509151016 50 284 0.0 0.0 0.00 0.00 0.00 100 1021.8
20260509150016 49 284 0.0 0.0 0.00 0.00 0.00 100 1021.8
20260509145016 49 284 0.0 0.0 0.00 0.00 0.00 100 1021.9
20260509144017 49 284 0.0 0.0 0.00 0.00 0.00 100 1021.9
20260509143016 48 284 0.0 0.0 0.00 0.00 0.00 100 1021.9
20260509142016 48 284 0.0 0.0 0.00 0.00 0.00 100 1022.1
20260509141016 48 284 0.0 0.0 0.00 0.00 0.00 100 1022.0
20260509140016 48 284 0.0 0.0 0.00 0.00 0.00 100 1022.0
20260509135016 48 284 0.0 0.0 0.00 0.00 0.00 100 1022.3
20260509134016 48 284 0.0 0.0 0.00 0.00 0.00 100 1022.4
20260509133016 47 284 0.0 0.0 0.00 0.00 0.00 100 1022.4
20260509132016 47 284 0.0 0.0 0.00 0.00 0.00 100 1022.0
20260509131016 47 284 0.0 0.0 0.00 0.00 0.00 100 1022.1
20260509130016 47 284 0.0 0.0 0.00 0.00 0.00 100 1022.1
20260509125016 47 284 0.0 0.0 0.00 0.00 0.00 100 1022.0
20260509124016 47 284 0.0 0.0 0.00 0.00 0.00 100 1021.9
20260509123016 47 284 0.0 0.0 0.00 0.00 0.00 100 1021.9
20260509122035 47 284 0.0 0.0 0.00 0.00 0.00 100 1022.2
20260509121016 47 284 0.0 0.0 0.00 0.00 0.00 100 1022.3
20260509120015 47 284 0.0 0.0 0.00 0.00 0.00 100 1022.3
20260509115036 47 284 0.0 0.0 0.00 0.00 0.00 100 1022.3
20260509114035 47 284 0.0 0.0 0.00 0.00 0.00 100 1022.3
20260509113015 47 284 0.0 0.0 0.00 0.00 0.00 100 1022.3